McComb, MS

9:17 AM CDT on July 23, 2017 (GMT -0500)
McComb-Pike County-Lewis

Weather History for KMCB - January, 2014

Change the Weather History Date:

Monday, January 27, 2014

  Actual Average Record
Temperature  
Mean Temperature 47 °F -  
Max Temperature 57 °F 59 °F 86 °F (1972)
Min Temperature 36 °F 37 °F 20 °F (1978)
Degree Days  
Heating Degree Days 18    
Moisture  
Dew Point 44 °F    
Average Humidity 79    
Maximum Humidity 100    
Minimum Humidity 29    
Precipitation  
Precipitation 0.01 in - - ()
Sea Level Pressure  
Sea Level Pressure 29.95 in    
Wind  
Wind Speed 5 mph (North)    
Max Wind Speed 17 mph    
Max Gust Speed 24 mph    
Visibility 6 miles    
Events Fog , Rain    
Averages and records for this station are not official NWS values.
T = Trace of Precipitation, MM = Missing Value Source: NWS Daily Summary

Daily Weather History Graph

Daily Weather History Graph

Search for Another Location

Airport or City:

Trip Planner

Search our weather history database for the weather conditions in past years. The results will help you decide how hot, cold, wet, or windy it might be!

Date:

Astronomy

Jan. 27, 2014 Rise Set
Actual Time 6:56 AM CST 5:32 PM CST
Civil Twilight 6:31 AM CST 5:58 PM CST
Nautical Twilight 6:02 AM CST 6:27 PM CST
Astronomical Twilight 5:33 AM CST 6:56 PM CST
Moon 3:35 AM CST (1/27) 2:21 PM CST (1/27)
Length of Visible Light 11h 27m
Length of Day
10h 35m
Waning Crescent, 14% of the Moon is Illuminated
Jan 27
Waning Crescent
Jan 30
New
Feb 6
First Quarter
Feb 14
Full
Feb 22
Last Quarter

Hourly Weather History & Observations

Time (CST) Temp. Windchill Dew Point Humidity Pressure Visibility Wind Dir Wind Speed Gust Speed Precip Events Conditions
12:09 AM 52.0 °F - 48.0 °F 86% 29.88 in 10.0 mi South 4.6 mph - N/A   Overcast
12:53 AM 52.0 °F - 48.9 °F 89% 29.88 in 9.0 mi South 5.8 mph - N/A   Overcast
1:41 AM 52.0 °F - 50.0 °F 93% 29.88 in 8.0 mi South 4.6 mph - N/A   Overcast
1:53 AM 52.0 °F - 48.9 °F 89% 29.87 in 8.0 mi South 3.5 mph - N/A   Overcast
2:10 AM 52.0 °F - 50.0 °F 93% 29.87 in 8.0 mi SSE 3.5 mph - N/A   Mostly Cloudy
2:48 AM 53.6 °F - 50.0 °F 88% 29.87 in 8.0 mi Calm Calm - N/A   Overcast
2:53 AM 53.1 °F - 50.0 °F 89% 29.86 in 8.0 mi Calm Calm - N/A   Overcast
3:53 AM 53.1 °F - 51.1 °F 93% 29.86 in 6.0 mi Calm Calm - 0.00 in   Overcast
4:19 AM 53.1 °F - 52.0 °F 96% 29.86 in 3.0 mi Calm Calm - 0.01 in Rain Light Rain
4:26 AM 53.1 °F - 51.1 °F 93% 29.86 in 2.5 mi Calm Calm - 0.01 in Rain Light Rain
4:33 AM 53.1 °F - 52.0 °F 96% 29.86 in 4.0 mi Calm Calm - 0.01 in   Overcast
4:53 AM 53.1 °F - 52.0 °F 96% 29.86 in 2.5 mi Calm Calm - 0.01 in   Overcast
5:00 AM 54.0 °F - 52.0 °F 93% 29.87 in 3.0 mi Calm Calm - N/A   Overcast
5:07 AM 54.0 °F - 53.1 °F 97% 29.87 in 1.8 mi Calm Calm - N/A   Overcast
5:21 AM 54.0 °F - 53.1 °F 97% 29.88 in 0.5 mi Calm Calm - N/A Fog Fog
5:40 AM 53.1 °F - 53.1 °F 100% 29.89 in 0.2 mi NNW 3.5 mph - N/A Fog Fog
5:53 AM 54.0 °F - 53.1 °F 97% 29.89 in 0.5 mi Calm Calm - N/A Fog Fog
6:28 AM 54.0 °F - 53.1 °F 97% 29.91 in 0.2 mi North 4.6 mph - N/A Fog Fog
6:36 AM 53.1 °F - 53.1 °F 100% 29.91 in 0.5 mi Calm Calm - N/A Fog Fog
6:53 AM 53.1 °F - 53.1 °F 100% 29.91 in 0.5 mi Calm Calm - N/A Fog Fog
7:13 AM 53.1 °F - 53.1 °F 100% 29.93 in 0.2 mi Calm Calm - N/A Fog Fog
7:53 AM 54.0 °F - 54.0 °F 100% 29.93 in 0.2 mi NW 4.6 mph - N/A Fog Fog
8:28 AM 55.0 °F - 54.0 °F 96% 29.95 in 0.8 mi NNW 6.9 mph - N/A   Mist
8:37 AM 55.0 °F - 55.0 °F 100% 29.95 in 1.8 mi NNW 6.9 mph - N/A   Overcast
8:43 AM 55.9 °F - 55.0 °F 97% 29.95 in 3.0 mi North 8.1 mph - N/A   Overcast
8:53 AM 55.9 °F - 55.0 °F 97% 29.94 in 5.0 mi North 8.1 mph - N/A   Overcast
9:06 AM 55.9 °F - 55.0 °F 97% 29.95 in 5.0 mi North 8.1 mph - N/A   Overcast
9:50 AM 57.2 °F - 53.6 °F 88% 29.97 in 10.0 mi North 10.4 mph - N/A   Overcast
9:53 AM 57.9 °F - 54.0 °F 87% 29.97 in 10.0 mi North 9.2 mph - N/A   Overcast
10:24 AM 55.9 °F - 51.1 °F 84% 30.00 in 10.0 mi North 12.7 mph - N/A   Overcast
10:53 AM 55.9 °F - 50.0 °F 80% 30.00 in 10.0 mi North 11.5 mph - N/A   Overcast
11:24 AM 55.9 °F - 48.0 °F 75% 30.00 in 10.0 mi North 11.5 mph - N/A   Overcast
11:53 AM 57.0 °F - 46.9 °F 69% 29.99 in 10.0 mi North 12.7 mph - N/A   Overcast
12:28 PM 57.0 °F - 46.9 °F 69% 29.99 in 10.0 mi North 8.1 mph - N/A   Overcast
12:53 PM 57.0 °F - 44.1 °F 62% 29.97 in 10.0 mi North 12.7 mph - N/A   Overcast
1:53 PM 55.0 °F - 39.0 °F 55% 29.99 in 10.0 mi North 11.5 mph - N/A   Overcast
2:53 PM 55.0 °F - 36.0 °F 49% 29.98 in 10.0 mi North 11.5 mph - N/A   Overcast
3:53 PM 54.0 °F - 33.1 °F 45% 30.00 in 10.0 mi North 16.1 mph 20.7 mph N/A   Overcast
4:53 PM 51.1 °F - 30.9 °F 46% 30.04 in 10.0 mi NNW 13.8 mph - N/A   Overcast
5:53 PM 46.9 °F - 26.1 °F 44% 30.06 in 10.0 mi North 17.3 mph 24.2 mph N/A   Scattered Clouds
6:53 PM 44.1 °F 37.4 °F 19.0 °F 37% 30.09 in 10.0 mi North 13.8 mph 20.7 mph N/A   Overcast
7:53 PM 42.1 °F 35.2 °F 15.1 °F 34% 30.12 in 10.0 mi North 12.7 mph - N/A   Overcast
8:53 PM 41.0 °F 33.1 °F 10.9 °F 29% 30.14 in 10.0 mi North 15.0 mph - N/A   Overcast
9:53 PM 39.0 °F 31.4 °F 12.0 °F 33% 30.14 in 10.0 mi North 12.7 mph - N/A   Overcast
10:53 PM 37.0 °F 28.9 °F 10.9 °F 34% 30.14 in 10.0 mi North 12.7 mph - N/A   Overcast
11:53 PM 36.0 °F 27.5 °F 10.0 °F 34% 30.15 in 10.0 mi North 12.7 mph - N/A   Overcast